Weather History for Brier Island, NS

Change the Weather History Date:

Tuesday, December 11, 2012

  Actual Average Record
Temperature  
Mean Temperature 44 °F -  
Max Temperature 53 °F - - ()
Min Temperature 35 °F - - ()
Degree Days  
Heating Degree Days 20    
Moisture  
Dew Point 39 °F    
Average Humidity 81    
Maximum Humidity 99    
Minimum Humidity 65    
Precipitation  
Precipitation 0.24 in - - ()
Sea Level Pressure  
Sea Level Pressure 29.76 in    
Wind  
Wind Speed 14 mph ()    
Max Wind Speed 21 mph    
Max Gust Speed 30 mph    
T = Trace of Precipitation, MM = Missing Value Source: Averaged Metar Reports

Daily Weather History Graph

Daily Weather History Graph

Search for Another Location

Airport:

Trip Planner

Search our weather history database for the weather conditions in past years. The results will help you decide how hot, cold, wet, or windy it might be!

Date:

Astronomy

Dec. 11, 2012 Rise Set
Actual Time 7:51 AM AST 4:46 PM AST
Civil Twilight 7:18 AM AST 5:19 PM AST
Nautical Twilight 6:41 AM AST 5:56 PM AST
Astronomical Twilight 6:06 AM AST 6:31 PM AST
Moon 5:39 AM AST (12/11) 3:23 PM AST (12/11)
Length of Visible Light 10h 01m
Length of Day
8h 54m
Waning Crescent, 4% of the Moon is Illuminated
Dec 11
Waning Crescent
Dec 13
New
Dec 20
First Quarter
Dec 28
Full
Jan 4
Last Quarter

Hourly Weather History & Observations

Time (AST) Temp. Windchill Dew Point Humidity Pressure Visibility Wind Dir Wind Speed Gust Speed Precip Events Conditions
12:00 AM 55.8 °F - 55.0 °F 97% 29.48 in - South 20.7 mph 29.9 mph 0.15 in   Unknown
1:00 AM 55.4 °F - 54.7 °F 97% 29.48 in - South 17.3 mph 27.6 mph 0.18 in   Unknown
2:00 AM 53 °F - 53 °F 99% 29.48 in - SW 6.9 mph - -  
2:00 AM 53.4 °F - 52.7 °F 97% 29.48 in - SW 6.9 mph - 0.06 in   Unknown
3:00 AM 51.6 °F - 50.9 °F 97% 29.52 in - West 20.7 mph 27.6 mph N/A   Unknown
4:00 AM 47.1 °F - 46.0 °F 96% 29.57 in - NW 18.4 mph - N/A   Unknown
5:00 AM 46.2 °F 39.8 °F 43.0 °F 88% 29.59 in - NW 15.0 mph - N/A   Unknown
6:00 AM 46.0 °F 40.6 °F 42.4 °F 87% 29.62 in - WNW 11.5 mph - N/A   Unknown
7:00 AM 46.6 °F - 42.1 °F 84% 29.66 in - WNW 13.8 mph - N/A   Unknown
8:00 AM 46 °F - 41 °F 77% 29.69 in - WNW 13.8 mph - -  
8:00 AM 46.0 °F 39.9 °F 41.0 °F 83% 29.69 in - WNW 13.8 mph - N/A   Unknown
9:00 AM 46.2 °F 39.0 °F 40.5 °F 80% 29.73 in - WNW 18.4 mph - N/A   Unknown
10:00 AM 45.7 °F 38.6 °F 38.7 °F 76% 29.75 in - WNW 17.3 mph - N/A   Unknown
11:00 AM 44.8 °F 37.7 °F 36.7 °F 73% 29.76 in - NW 16.1 mph - N/A   Unknown
12:00 PM 44.1 °F 36.8 °F 35.8 °F 73% 29.78 in - WNW 16.1 mph - N/A   Unknown
1:00 PM 44.1 °F 37.1 °F 36.3 °F 74% 29.79 in - WNW 15.0 mph - N/A   Unknown
2:00 PM 44 °F - 36 °F 66% 29.81 in - West 17.3 mph - -  
2:00 PM 44.1 °F 36.5 °F 36.5 °F 75% 29.81 in - West 17.3 mph - N/A   Unknown
3:00 PM 43.2 °F 34.7 °F 36.5 °F 77% 29.82 in - WNW 19.6 mph - N/A   Unknown
4:00 PM 42.3 °F 34.4 °F 36.1 °F 79% 29.86 in - WNW 16.1 mph - N/A   Unknown
5:00 PM 41.5 °F 33.5 °F 35.1 °F 78% 29.89 in - WNW 16.1 mph - N/A   Unknown
6:00 PM 40.3 °F 31.6 °F 34.5 °F 80% 29.93 in - NW 17.3 mph - N/A   Unknown
7:00 PM 39.2 °F 30.2 °F 31.6 °F 74% 29.96 in - WNW 17.3 mph - N/A   Unknown
8:00 PM 38 °F - 30 °F 65% 30.00 in - WNW 18.4 mph - -  
8:00 PM 37.6 °F 27.7 °F 30.4 °F 75% 30.00 in - WNW 18.4 mph - N/A   Unknown
9:00 PM 36.3 °F 26.1 °F 27.9 °F 71% 30.02 in - WNW 18.4 mph - N/A   Unknown
10:00 PM 36.7 °F 28.9 °F 28.2 °F 71% 30.05 in - NW 11.5 mph - N/A   Unknown
11:00 PM 35.6 °F 24.8 °F 30.0 °F 80% 30.06 in - NW 19.6 mph - N/A   Unknown